• In Hungary
  • List of Countries
  • For 7 days
  • Water Temperature
  • Satellite Maps
  • Weather Map
  • News
  • Weather Widgets
  • user-avatar
    Login

    Hourly Weather Valno

    Today, 24 September, Monday

    Time Temperature Precipitation Wind Pressure Humidity
    00:00 +5°C° 0 mm 3 mps 730 mmHg 93%
    01:00 +5°C° 0 mm 3 mps 730 mmHg 94%
    02:00 +5°C° 0 mm 2 mps 730 mmHg 97%
    03:00 +5°C° 0 mm 2 mps 730 mmHg 97%
    04:00 +5°C° 0 mm 2 mps 729 mmHg 97%
    05:00 +5°C° 0 mm 2 mps 729 mmHg 98%
    06:00 +6°C° 0 mm 2 mps 729 mmHg 95%
    07:00 +6°C° 0 mm 2 mps 729 mmHg 93%
    08:00 +7°C° 0 mm 2 mps 729 mmHg 89%
    09:00 +8°C° 0.3 mm 2 mps 728 mmHg 88%
    10:00 +8°C° 0.3 mm 2 mps 728 mmHg 87%
    11:00 +9°C° 0.3 mm 2 mps 728 mmHg 86%
    12:00 +8°C° 1.2 mm 2 mps 727 mmHg 88%
    13:00 +8°C° 1.2 mm 2 mps 727 mmHg 91%
    14:00 +8°C° 0 mm 2 mps 727 mmHg 92%
    15:00 +7°C° 1.3 mm 2 mps 726 mmHg 93%
    16:00 +7°C° 1.3 mm 2 mps 726 mmHg 94%
    17:00 +7°C° 1.3 mm 3 mps 725 mmHg 95%
    18:00 +7°C° 1.2 mm 3 mps 725 mmHg 95%
    19:00 +7°C° 1.2 mm 3 mps 725 mmHg 95%
    20:00 +5°C° 1.2 mm 4 mps 724 mmHg 95%
    21:00 +5°C° 0.6 mm 4 mps 724 mmHg 94%
    22:00 +5°C° 0.6 mm 5 mps 724 mmHg 93%
    23:00 +6°C° 0.6 mm 5 mps 724 mmHg 93%

    Tomorrow, 25 September, Tuesday

    Time Temperature Precipitation Wind Pressure Humidity
    00:00 +5°C° 0.3 mm 5 mps 725 mmHg 92%
    01:00 +5°C° 0.3 mm 5 mps 725 mmHg 91%
    02:00 +5°C° 0.3 mm 5 mps 726 mmHg 89%
    03:00 +5°C° 0.1 mm 5 mps 726 mmHg 89%
    04:00 +3°C° 0.1 mm 5 mps 727 mmHg 89%
    05:00 +3°C° 0.1 mm 5 mps 727 mmHg 89%
    06:00 +3°C° 0 mm 5 mps 728 mmHg 88%
    07:00 +3°C° 0 mm 5 mps 729 mmHg 87%
    08:00 +3°C° 0 mm 6 mps 729 mmHg 86%
    09:00 +4°C° 0 mm 6 mps 730 mmHg 81%
    10:00 +5°C° 0 mm 6 mps 731 mmHg 77%
    11:00 +5°C° 0 mm 6 mps 732 mmHg 72%
    12:00 +7°C° 0.1 mm 6 mps 732 mmHg 69%
    13:00 +7°C° 0.1 mm 6 mps 733 mmHg 66%
    14:00 +7°C° 0.1 mm 6 mps 733 mmHg 63%
    15:00 +7°C° 0.1 mm 5 mps 734 mmHg 65%
    16:00 +6°C° 0.1 mm 5 mps 735 mmHg 68%
    17:00 +6°C° 0.1 mm 5 mps 735 mmHg 71%
    18:00 +5°C° 0 mm 4 mps 736 mmHg 73%
    19:00 +4°C° 0 mm 4 mps 737 mmHg 75%
    20:00 +3°C° 0 mm 4 mps 738 mmHg 76%
    21:00 +3°C° 0 mm 4 mps 738 mmHg 75%
    22:00 +1°C° 0 mm 4 mps 739 mmHg 73%
    23:00 +1°C° 0 mm 4 mps 739 mmHg 72%

    Day after tomorrow, 26 September, Wednesday

    Time Temperature Precipitation Wind Pressure Humidity
    00:00 +2°C° 0 mm 3 mps 740 mmHg 73%
    01:00 +1°C° 0 mm 3 mps 740 mmHg 75%
    02:00 0°C° 0 mm 3 mps 741 mmHg 77%
    03:00 0°C° 0 mm 3 mps 741 mmHg 79%
    04:00 +2°C° 0 mm 2 mps 742 mmHg 81%
    05:00 +2°C° 0 mm 2 mps 742 mmHg 82%
    06:00 +2°C° 0 mm 3 mps 742 mmHg 82%
    07:00 +2°C° 0 mm 3 mps 742 mmHg 81%
    08:00 +3°C° 0 mm 3 mps 743 mmHg 81%
    09:00 +5°C° 0 mm 4 mps 742 mmHg 73%
    10:00 +7°C° 0 mm 4 mps 742 mmHg 64%
    11:00 +8°C° 0 mm 4 mps 742 mmHg 56%
    12:00 +9°C° 0 mm 5 mps 741 mmHg 54%
    13:00 +9°C° 0 mm 5 mps 741 mmHg 52%
    14:00 +10°C° 0 mm 5 mps 740 mmHg 49%
    15:00 +9°C° 0.1 mm 5 mps 739 mmHg 56%
    16:00 +8°C° 0.1 mm 5 mps 738 mmHg 62%
    17:00 +7°C° 0.1 mm 5 mps 737 mmHg 68%
    18:00 +7°C° 1.1 mm 6 mps 736 mmHg 75%
    19:00 +5°C° 1.1 mm 7 mps 735 mmHg 81%
    20:00 +5°C° 1.1 mm 8 mps 734 mmHg 87%
    21:00 +5°C° 1.7 mm 8 mps 732 mmHg 88%
    22:00 +5°C° 1.7 mm 8 mps 731 mmHg 89%
    23:00 +5°C° 1.7 mm 8 mps 730 mmHg 89%

    27 September, Thursday

    Time Temperature Precipitation Wind Pressure Humidity
    00:00 +5°C° 1.4 mm 7 mps 729 mmHg 90%
    01:00 +6°C° 1.4 mm 7 mps 728 mmHg 91%
    02:00 +6°C° 1.4 mm 7 mps 728 mmHg 92%
    03:00 +7°C° 0.7 mm 6 mps 728 mmHg 91%
    04:00 +7°C° 0.7 mm 5 mps 728 mmHg 91%
    05:00 +6°C° 0.7 mm 4 mps 728 mmHg 90%
    06:00 +6°C° 0 mm 5 mps 728 mmHg 88%
    07:00 +6°C° 0 mm 5 mps 728 mmHg 85%
    08:00 +6°C° 0 mm 5 mps 729 mmHg 83%
    09:00 +7°C° 0.1 mm 5 mps 729 mmHg 77%
    10:00 +8°C° 0.1 mm 6 mps 729 mmHg 71%
    11:00 +8°C° 0.1 mm 6 mps 730 mmHg 65%
    12:00 +9°C° 0.1 mm 6 mps 730 mmHg 62%
    13:00 +9°C° 0.1 mm 7 mps 730 mmHg 59%
    14:00 +9°C° 0.1 mm 7 mps 730 mmHg 56%
    15:00 +9°C° 0 mm 6 mps 731 mmHg 59%
    16:00 +8°C° 0 mm 5 mps 731 mmHg 63%
    17:00 +7°C° 0 mm 4 mps 731 mmHg 66%
    18:00 +6°C° 0 mm 4 mps 731 mmHg 69%
    19:00 +6°C° 0 mm 4 mps 732 mmHg 71%
    20:00 +5°C° 0 mm 3 mps 732 mmHg 74%
    21:00 +4°C° 0 mm 3 mps 732 mmHg 75%
    22:00 +4°C° 0 mm 3 mps 732 mmHg 77%
    23:00 +4°C° 0 mm 3 mps 732 mmHg 79%

    28 September, Friday

    Time Temperature Precipitation Wind Pressure Humidity
    00:00 +4°C° 0 mm 3 mps 732 mmHg 80%
    01:00 +3°C° 0 mm 3 mps 731 mmHg 81%
    02:00 +4°C° 0 mm 2 mps 731 mmHg 82%
    03:00 +3°C° 1.4 mm 3 mps 729 mmHg 85%
    04:00 +3°C° 1.4 mm 3 mps 728 mmHg 89%
    05:00 +3°C° 1.4 mm 3 mps 727 mmHg 92%
    06:00 +4°C° 4 mm 4 mps 726 mmHg 93%
    07:00 +5°C° 4 mm 4 mps 725 mmHg 93%
    08:00 +6°C° 4 mm 4 mps 724 mmHg 93%
    09:00 +5°C° 0.8 mm 4 mps 724 mmHg 92%
    10:00 +5°C° 0.8 mm 4 mps 725 mmHg 91%
    11:00 +4°C° 0.8 mm 4 mps 726 mmHg 90%
    12:00 +5°C° 0.1 mm 4 mps 727 mmHg 87%
    13:00 +5°C° 0.1 mm 4 mps 729 mmHg 84%
    14:00 +5°C° 0.1 mm 4 mps 730 mmHg 81%
    15:00 +5°C° 0 mm 4 mps 731 mmHg 81%
    16:00 +4°C° 0 mm 3 mps 732 mmHg 80%
    17:00 +4°C° 0 mm 3 mps 733 mmHg 80%
    18:00 +4°C° 0 mm 2 mps 734 mmHg 82%
    19:00 +3°C° 0 mm 2 mps 734 mmHg 84%
    20:00 +2°C° 0 mm 2 mps 735 mmHg 86%
    21:00 +2°C° 0 mm 2 mps 735 mmHg 87%
    22:00 +1°C° 0 mm 2 mps 735 mmHg 88%
    23:00 +1°C° 0 mm 2 mps 735 mmHg 89%

    29 September, Saturday

    Time Temperature Precipitation Wind Pressure Humidity
    00:00 +2°C° 0.1 mm 2 mps 736 mmHg 89%
    01:00 +2°C° 0.1 mm 3 mps 736 mmHg 89%
    02:00 +2°C° 0.1 mm 3 mps 736 mmHg 89%
    03:00 +3°C° 0.1 mm 3 mps 736 mmHg 90%
    04:00 +3°C° 0.1 mm 3 mps 736 mmHg 92%
    05:00 +3°C° 0.1 mm 3 mps 737 mmHg 93%
    06:00 +3°C° 0.1 mm 3 mps 737 mmHg 91%
    07:00 +3°C° 0.1 mm 3 mps 738 mmHg 88%
    08:00 +3°C° 0.1 mm 3 mps 738 mmHg 85%
    09:00 +3°C° 0 mm 3 mps 739 mmHg 76%
    10:00 +5°C° 0 mm 2 mps 739 mmHg 67%
    11:00 +6°C° 0 mm 2 mps 740 mmHg 58%
    12:00 +6°C° 0 mm 2 mps 740 mmHg 55%
    13:00 +7°C° 0 mm 2 mps 740 mmHg 52%
    14:00 +7°C° 0 mm 2 mps 740 mmHg 49%
    15:00 +7°C° 0 mm 2 mps 741 mmHg 56%
    16:00 +7°C° 0 mm 1 mps 741 mmHg 62%
    17:00 +6°C° 0 mm 1 mps 741 mmHg 69%
    18:00 +5°C° 0 mm 1 mps 741 mmHg 72%
    19:00 +4°C° 0 mm 1 mps 742 mmHg 76%
    20:00 +3°C° 0 mm 1 mps 742 mmHg 79%
    21:00 +3°C° 0 mm 1 mps 742 mmHg 81%
    22:00 +1°C° 0 mm 2 mps 742 mmHg 82%
    23:00 +1°C° 0 mm 2 mps 742 mmHg 84%
    Show more